Terminal Aerodrome Forecast
Issued by NWS Charleston, WV

Current Version | Previous Version | Graphics & Text | Print | Product List | Glossary On
Versions: 1 2 3 4 5 6 7 8 9 10 11 12 13 14 15 16 17 18 19 20 21 22 23 24 25 26 27 28 29 30 31 32 33
000
FTUS41 KRLX 291436 AAA
TAFPKB
TAF AMD
KPKB 291436Z 2915/3012 00000KT 3SM BR BKN005
     FM291530 00000KT 6SM BR SCT005 BKN012
     FM291700 VRB03KT P6SM BKN025
     FM291830 VRB03KT P6SM BKN035
     FM292000 VRB03KT P6SM VCTS BKN050CB
     FM300000 00000KT P6SM BKN060
     FM300500 00000KT 4SM BR BKN050
     FM301100 00000KT 1SM BR BKN001=

USA.gov is the U.S. government's official web portal to all federal, state and local government web resources and services.